This is the latest recevied weather packets stored in our database for station/object K7AEL. If no packets are shown the sender has not sent any weather packets the latest 10 day(s).
| Time | Temp. | Humidity | Pressure | Rain* | Wind** | Luminosity | Snow |
|---|---|---|---|---|---|---|---|
| 1777965278 | 15.56° C | 92% | 1016.4 hPa | 0 mm | - | 0 W/m² | - |
| 1777964977 | 15.56° C | 92% | 1015.9 hPa | 1.78 mm | - | 0 W/m² | - |
| 1777964673 | 15.56° C | 91% | 1015.7 hPa | 1.78 mm | - | 0 W/m² | - |
| 1777964369 | 15.56° C | 91% | 1015.8 hPa | 0 mm | - | 0 W/m² | - |
| 1777964066 | 15.56° C | 90% | 1015.9 hPa | 1.78 mm | - | 0 W/m² | - |
| 1777963762 | 15.56° C | 90% | 1016 hPa | 3.05 mm | - | 0 W/m² | - |
| 1777963460 | 15.56° C | 89% | 1015.9 hPa | 1.27 mm | - | 0 W/m² | - |
| 1777963158 | 15.56° C | 88% | 1015.9 hPa | 1.78 mm | - | 0 W/m² | - |
| 1777962854 | 15.56° C | 88% | 1015.9 hPa | 1.78 mm | - | 0 W/m² | - |
| 1777962550 | 15.56° C | 87% | 1015.7 hPa | 1.27 mm | - | 0 W/m² | - |
| 1777962248 | 15.56° C | 86% | 1015.9 hPa | 1.27 mm | - | 0 W/m² | - |
| 1777961944 | 15.56° C | 85% | 1015.7 hPa | 0 mm | - | 0 W/m² | - |
| 1777961643 | 15.56° C | 85% | 1015.9 hPa | 0 mm | - | 0 W/m² | - |
| 1777961340 | 15.56° C | 85% | 1015.8 hPa | 0 mm | - | 0 W/m² | - |
| 1777961036 | 15.56° C | 85% | 1016.1 hPa | 0 mm | - | 0 W/m² | - |
| 1777960733 | 15.56° C | 86% | 1015.9 hPa | 1.78 mm | - | 0 W/m² | - |
| 1777960429 | 15.56° C | 85% | 1015.8 hPa | 1.78 mm | - | 0 W/m² | - |
| 1777960126 | 15.56° C | 85% | 1015.7 hPa | 0 mm | - | 0 W/m² | - |
| 1777959823 | 15.56° C | 84% | 1015.8 hPa | 0 mm | - | 0 W/m² | - |
| 1777959522 | 15.56° C | 84% | 1015.8 hPa | 1.27 mm | - | 0 W/m² | - |
| 1777959218 | 15.56° C | 84% | 1015.6 hPa | 1.27 mm | - | 0 W/m² | - |
| 1777958915 | 15.56° C | 84% | 1015.6 hPa | 0 mm | - | 0 W/m² | - |
| 1777958612 | 15.56° C | 84% | 1015.7 hPa | 0 mm | - | 0 W/m² | - |
| 1777958309 | 15.56° C | 85% | 1015.6 hPa | 0 mm | - | 0 W/m² | - |
| 1777958006 | 15° C | 85% | 1015.5 hPa | 0 mm | - | 0 W/m² | - |
* Rain latest hour (hover to see other rain measurements)
** Current wind speed in m/s (hover to see current wind gust speed)